Temp
9 9 11 13 14 15 16 15 14 16 15 15 14 13 12 11 10 9 9 9 8 6 5 3 2 2 3 3 2 2 1 -0 -1 -2 -2 -2 -3 -4 -4 -5 -6 -6 -6 -6
9 8 9 9 9 11 10 11 11 12 12 14 15 14 13 12 11 10 10 9 9 7 5 3 3 2 2 3 2 2 0 -1 -2 -2 -3 -4 -4 -5 -5 -6 -6 -7 -7 -7
9 9 9 9 11 12 12 12 11 10 13 15 15 14 14 13 13 12 11 10 10 7 5 4 3 2 2 2 1 0 -1 -2 -2 -3 -4 -4 -5 -6 -6 -7 -7 -7 -7 -8
9 9 8 12 13 13 13 13 14 15 15 14 15 14 13 13 13 13 13 11 10 6 5 3 2 2 2 1 0 -1 -2 -3 -3 -4 -5 -5 -6 -6 -7 -7 -8 -8 -8 -8
8 9 11 12 14 11 10 11 13 13 14 14 14 13 13 8 10 11 11 9 6 5 4 2 2 1 0 -1 -1 -2 -3 -4 -4 -4 -5 -5 -6 -7 -7 -8 -8 -8 -8 -8
8 7 8 10 12 13 12 8 12 12 12 13 11 9 10 4 5 5 5 5 4 3 2 2 1 1 -0 -2 -3 -3 -3 -4 -4 -5 -5 -5 -6 -7 -7 -8 -9 -9 -9 -9
7 8 8 10 12 13 10 10 12 13 12 12 9 6 4 2 1 2 3 2 2 2 1 1 0 -0 -2 -3 -3 -3 -4 -5 -5 -5 -5 -5 -6 -6 -7 -8 -9 -9 -10 -10
7 7 6 11 13 12 9 11 12 10 7 4 3 2 1 1 1 1 1 1 1 0 -0 -0 -1 -1 -3 -3 -3 -4 -4 -5 -5 -5 -5 -5 -5 -6 -7 -9 -9 -10 -10 -10
7 6 8 10 11 11 10 10 11 8 4 3 2 2 1 1 1 1 0 0 0 -0 -1 -1 -2 -1 -3 -4 -4 -4 -5 -5 -5 -5 -5 -6 -5 -6 -7 -8 -10 -10 -10 -10
9 9 9 9 9 9 10 9 9 5 4 3 2 1 1 0 -0 -0 -1 -0 -1 -1 -2 -3 -3 -3 -3 -4 -4 -4 -5 -5 -5 -6 -6 -6 -6 -7 -7 -9 -10 -10 -10 -10
5 7 8 9 9 8 9 7 5 4 3 2 2 1 1 -0 -0 -1 -1 -1 -1 -1 -2 -3 -3 -4 -4 -4 -4 -5 -5 -5 -6 -6 -6 -7 -7 -7 -8 -8 -9 -10 -10 -10
5 7 7 8 8 7 7 6 5 3 2 2 2 1 0 -0 -1 -1 -1 -1 -1 -2 -2 -3 -4 -4 -4 -4 -4 -5 -5 -6 -6 -6 -7 -8 -9 -9 -9 -9 -10 -10 -10 -10
7 8 7 8 8 9 8 5 3 3 2 2 1 1 0 -1 -1 -1 -1 -2 -2 -2 -2 -2 -3 -4 -4 -4 -4 -5 -5 -6 -7 -7 -8 -9 -9 -10 -10 -9 -10 -10 -10 -9
7 8 8 8 7 9 7 5 4 2 1 1 0 0 -0 -1 -1 -1 -1 -1 -2 -2 -2 -2 -2 -3 -3 -3 -4 -4 -5 -5 -6 -7 -7 -8 -9 -9 -9 -10 -10 -11 -11 -10
7 7 7 8 7 5 4 3 2 1 0 0 -0 -1 -1 -1 -1 -1 -2 -3 -3 -4 -4 -3 -2 -2 -2 -3 -3 -4 -4 -4 -5 -6 -6 -7 -7 -8 -9 -10 -11 -11 -11 -11
7 7 7 6 5 4 3 2 1 0 0 -0 -0 -1 -1 -1 -2 -3 -4 -4 -5 -5 -5 -3 -2 -3 -3 -2 -3 -3 -4 -4 -5 -6 -7 -7 -7 -8 -9 -10 -11 -11 -11 -11
6 6 5 5 4 3 3 1 1 1 0 -0 -1 -2 -2 -3 -4 -4 -5 -4 -5 -5 -4 -2 -3 -4 -3 -3 -3 -4 -5 -5 -6 -6 -7 -7 -7 -8 -8 -10 -11 -11 -12 -12
7 6 5 4 3 2 1 1 -0 0 0 -1 -2 -2 -3 -4 -4 -6 -6 -6 -6 -6 -6 -4 -5 -6 -4 -4 -4 -5 -5 -6 -7 -7 -7 -7 -8 -8 -9 -10 -11 -12 -13 -13
4 3 2 2 1 0 -0 -1 -1 -0 -1 -2 -2 -3 -4 -5 -6 -6 -6 -6 -7 -8 -7 -6 -6 -6 -5 -5 -5 -6 -6 -7 -7 -7 -8 -8 -9 -9 -10 -10 -11 -12 -13 -13
0 0 0 -0 0 -0 -2 -1 -1 -2 -2 -2 -4 -5 -6 -6 -6 -6 -6 -7 -7 -7 -7 -7 -7 -7 -7 -7 -6 -7 -7 -7 -8 -8 -9 -9 -9 -10 -11 -11 -12 -12 -13 -14
-2 -2 -3 -3 -4 -3 -2 -1 -2 -3 -3 -3 -4 -6 -6 -7 -6 -7 -7 -7 -7 -7 -7 -8 -7 -7 -7 -7 -7 -7 -7 -8 -8 -9 -9 -10 -10 -11 -12 -12 -12 -13 -14 -14
-6 -5 -5 -4 -5 -5 -4 -3 -3 -4 -4 -5 -5 -6 -7 -7 -7 -7 -6 -7 -7 -8 -8 -8 -8 -7 -7 -7 -7 -7 -7 -8 -8 -9 -10 -10 -11 -12 -12 -13 -13 -14 -14 -15
-2 -3 -3 -3 -3 -5 -5 -4 -4 -4 -5 -5 -6 -7 -7 -7 -7 -7 -8 -7 -7 -8 -8 -8 -8 -7 -7 -7 -7 -8 -8 -9 -9 -10 -10 -11 -11 -12 -12 -13 -13 -14 -15 -15
-1 -0 -3 -3 -3 -4 -5 -6 -5 -5 -5 -5 -5 -6 -6 -7 -7 -7 -6 -7 -7 -8 -8 -8 -8 -8 -8 -8 -8 -8 -9 -9 -10 -10 -11 -11 -12 -12 -13 -13 -14 -15 -15 -16
-2 -2 -3 -3 -3 -3 -4 -5 -6 -7 -7 -7 -7 -7 -6 -6 -6 -7 -6 -7 -7 -8 -8 -8 -8 -8 -8 -8 -9 -9 -9 -10 -11 -11 -12 -12 -12 -13 -13 -14 -15 -15 -16 -17
-2 -3 -3 -2 -3 -4 -4 -5 -6 -7 -7 -8 -8 -7 -7 -7 -7 -7 -7 -7 -8 -8 -8 -8 -8 -8 -8 -9 -9 -10 -10 -11 -11 -12 -12 -13 -13 -14 -14 -15 -15 -16 -17 -17
-2 -2 -3 -3 -3 -4 -4 -4 -6 -6 -7 -7 -8 -8 -8 -8 -7 -7 -8 -8 -8 -8 -8 -8 -8 -9 -9 -9 -10 -11 -11 -12 -12 -12 -13 -13 -14 -14 -15 -16 -16 -17 -17 -18
Height
749 751 738 725 716 712 710 718 723 716 727 729 733 736 738 742 750 756 763 769 771 776 785 789 794 800 806 809 811 813 818 822 825 825 825 826 827 825 827 828 827 825 824 823
752 753 755 748 746 738 740 737 735 732 734 724 723 730 733 741 749 754 757 753 760 773 778 782 788 797 804 805 811 812 816 822 826 824 825 826 827 827 830 830 828 827 826 826
745 750 753 751 737 733 727 730 732 738 724 717 718 720 722 727 729 734 734 747 754 759 769 775 784 792 798 801 808 813 818 823 825 824 825 826 827 831 833 831 831 830 829 828
747 743 753 722 714 716 716 716 714 711 710 712 711 710 712 713 715 716 719 724 740 755 767 774 777 787 795 799 805 810 818 822 823 824 825 827 830 834 834 834 833 832 832 831
752 745 727 716 710 721 722 719 712 708 709 706 708 711 714 720 713 709 713 722 736 745 756 768 776 782 792 797 803 809 817 822 822 822 824 827 832 835 835 835 836 835 835 834
746 753 746 723 713 712 713 733 706 708 708 703 711 723 720 724 721 715 720 725 735 747 760 768 774 781 790 795 801 810 816 820 820 821 824 828 833 836 836 837 837 837 837 836
750 745 738 716 710 708 726 729 710 703 706 706 718 723 727 729 729 728 726 731 740 749 758 766 772 780 787 792 802 809 816 818 818 821 825 830 834 835 837 839 839 839 839 838
749 749 755 708 704 707 717 705 703 709 715 720 726 729 732 735 737 736 736 741 748 753 760 768 775 780 784 793 802 810 813 814 818 822 827 831 833 835 837 839 841 841 841 840
735 735 713 706 703 702 705 705 704 709 717 722 727 731 735 738 739 741 746 750 753 755 762 772 777 778 785 795 802 808 810 814 818 824 829 831 833 835 838 840 842 843 843 842
722 716 710 708 705 703 701 703 704 709 714 720 725 733 736 740 744 748 749 751 756 759 765 771 776 781 787 796 802 806 809 814 819 825 828 831 834 836 838 840 842 843 844 844
728 717 713 707 705 705 701 704 707 713 715 719 726 733 736 740 743 748 752 755 757 760 766 772 777 782 789 795 800 805 810 814 820 825 828 831 834 836 838 840 841 843 844 844
725 709 710 708 704 705 701 702 707 711 719 723 726 730 736 739 744 748 752 755 759 763 767 772 778 784 790 794 798 803 809 814 819 823 828 831 834 837 841 841 843 844 845 845
708 703 704 702 701 698 700 701 708 713 716 720 727 731 737 740 743 747 752 755 758 762 767 772 778 783 788 793 798 803 808 813 818 822 827 830 834 837 839 844 845 846 846 846
699 701 704 702 702 696 696 703 709 715 719 724 728 732 736 740 744 747 751 754 758 763 768 772 777 782 787 793 798 803 807 812 815 820 824 828 832 835 837 840 843 845 846 846
696 695 697 699 699 698 700 706 713 719 723 726 729 732 736 740 744 748 751 755 760 764 768 772 777 782 787 793 798 802 806 810 814 818 823 827 830 833 836 839 842 843 845 845
691 693 697 701 701 701 705 711 714 720 723 727 730 734 737 741 745 748 752 756 760 766 769 773 778 782 787 792 797 801 805 809 813 818 822 826 828 831 834 837 840 842 843 844
695 698 700 703 704 704 707 712 714 718 724 727 730 735 739 743 748 752 756 759 762 766 771 775 780 786 790 793 796 801 805 810 813 818 821 824 827 829 832 834 838 841 842 843
690 692 695 698 702 705 709 712 715 718 722 726 731 736 741 745 750 754 757 761 764 769 773 776 781 787 791 794 797 801 805 809 813 816 820 823 826 828 831 833 836 839 841 842
693 695 697 700 703 706 710 714 717 719 724 728 733 738 742 746 750 755 759 762 766 770 775 778 782 787 791 794 797 800 804 808 812 816 819 822 825 828 830 832 835 837 839 841
698 699 701 704 707 708 713 715 718 722 726 730 735 740 745 749 752 756 760 763 766 769 774 779 783 788 791 794 797 801 804 808 812 815 818 821 824 827 830 832 834 836 837 839
702 704 707 709 713 714 715 718 721 725 729 731 735 740 744 749 753 756 761 765 768 771 775 779 783 787 790 794 798 801 804 808 811 814 817 820 823 826 829 830 832 834 836 837
709 710 712 714 716 719 721 723 724 727 731 735 738 742 746 751 755 759 762 764 768 772 776 780 784 787 790 794 797 800 804 807 810 813 816 819 822 824 827 829 831 832 834 835
712 714 717 718 719 723 726 728 730 731 734 737 740 744 747 750 754 758 762 765 767 771 776 779 783 788 790 794 797 800 803 806 809 812 815 818 820 823 825 827 829 830 832 833
715 717 719 721 723 726 730 732 734 736 737 740 742 745 747 752 756 759 761 764 768 771 774 778 783 787 789 793 796 800 803 806 808 811 814 817 819 821 823 825 827 828 830 830
716 719 721 723 726 729 731 734 736 738 740 742 744 747 749 752 754 758 761 764 768 772 775 779 782 786 789 793 796 799 802 805 807 810 812 815 817 819 821 823 824 825 827 827
718 720 723 725 727 729 732 734 736 739 741 744 746 748 750 753 755 758 761 764 767 771 775 778 782 785 789 792 796 799 802 804 806 809 811 813 815 817 819 820 821 822 823 824
719 721 723 726 727 729 731 734 736 739 741 743 745 748 751 753 755 758 761 764 767 770 774 778 781 785 788 792 795 798 800 803 805 807 809 811 813 815 816 817 819 820 820 821
Wind_Speed
8 14 12 11 11 5 4 2 8 17 6 3 6 7 8 12 14 15 15 14 16 16 16 22 23 22 24 19 23 22 19 18 17 16 14 12 11 11 10 11 14 16 17 18
3 3 7 7 12 13 7 4 5 2 8 4 9 10 12 12 11 11 12 19 20 16 21 25 26 25 26 23 21 21 22 19 17 15 14 12 12 13 12 13 15 18 20 18
3 4 4 5 12 11 11 12 7 6 11 15 8 9 12 17 18 19 20 17 20 19 24 27 27 28 25 26 26 24 22 19 16 15 15 14 15 16 17 18 19 20 21 21
3 5 3 11 10 8 8 13 10 9 10 11 12 9 9 7 16 18 21 22 19 20 26 28 32 29 30 31 29 26 21 18 17 16 17 18 18 18 19 19 21 22 23 22
1 3 4 10 6 6 4 5 5 6 7 5 2 3 3 4 6 9 13 15 21 32 36 33 31 33 33 30 29 26 22 19 18 18 19 19 19 19 19 20 20 21 21 21
2 1 4 4 5 8 6 4 5 2 5 1 4 3 5 6 6 7 11 24 31 33 32 32 31 36 33 27 27 25 23 21 19 18 20 20 19 20 19 19 19 17 18 20
4 4 7 5 7 4 3 5 4 2 1 1 3 2 3 4 7 7 17 26 30 31 32 30 36 36 29 28 26 23 22 21 20 19 20 19 19 19 20 19 18 17 17 17
5 4 6 5 2 2 6 3 3 4 5 4 5 6 6 6 8 10 14 24 26 28 26 26 32 33 28 27 26 26 24 23 22 20 19 17 17 16 21 18 17 18 19 19
6 5 4 4 3 2 3 6 4 6 4 8 9 5 7 7 9 9 16 19 22 27 25 24 26 31 28 29 30 28 25 25 23 19 18 15 17 21 22 18 17 16 17 17
1 2 4 7 5 2 3 6 3 4 9 7 7 9 9 8 9 9 15 18 22 24 22 21 23 25 30 31 31 29 28 25 23 21 20 20 20 21 20 17 16 16 16 16
4 6 4 5 3 4 2 4 8 7 7 10 12 9 10 9 9 12 13 16 20 21 21 22 25 25 29 31 29 26 25 23 24 22 20 18 16 15 15 12 12 18 16 16
5 6 4 6 5 7 7 8 10 9 8 8 8 10 7 9 13 15 15 17 17 18 21 23 24 26 27 29 28 27 23 23 26 24 22 23 22 19 14 15 13 11 11 11
5 6 4 5 5 3 5 8 9 9 10 12 10 12 12 7 14 16 16 17 18 20 22 25 25 26 28 27 29 25 24 24 25 26 24 23 18 19 20 14 12 10 9 8
6 4 3 4 5 3 4 9 12 11 12 12 11 14 14 11 15 15 16 16 21 24 27 29 28 27 27 29 27 27 27 27 27 27 26 23 22 22 22 21 17 11 7 6
9 8 5 4 3 6 10 11 11 10 9 9 14 14 14 12 12 14 17 20 20 24 27 31 29 26 29 31 31 30 28 27 27 26 24 21 20 20 20 18 18 13 9 10
4 6 6 6 6 9 10 8 11 9 8 9 10 13 13 13 14 18 21 25 24 19 24 30 28 25 30 34 33 31 28 28 26 25 23 22 20 20 20 20 18 13 11 13
5 5 5 5 6 7 7 7 10 11 10 8 13 17 16 17 16 16 16 19 25 29 29 28 27 23 26 32 33 29 27 24 22 21 21 20 18 19 20 22 21 13 11 11
3 4 6 8 7 7 6 7 7 12 10 15 18 19 16 15 12 15 21 22 23 23 26 29 28 25 25 26 26 26 24 23 23 21 21 20 20 18 18 20 19 16 13 11
5 7 7 7 7 7 7 7 10 16 18 18 19 15 17 19 20 22 23 22 20 18 20 26 26 24 23 22 23 24 24 24 22 22 20 19 18 17 16 16 17 16 14 12
7 8 12 9 12 12 7 15 19 16 17 21 21 19 16 18 23 23 22 16 19 19 24 25 25 25 23 21 21 24 24 24 23 21 21 19 18 17 16 15 15 17 14 12
7 7 7 9 9 13 17 19 19 14 19 23 22 17 18 20 22 23 18 12 16 17 23 25 26 25 19 21 20 22 22 22 20 20 19 20 17 16 16 16 15 15 14 12
4 5 6 12 11 11 10 12 17 20 20 19 19 22 21 18 20 16 16 17 19 20 24 24 24 22 21 23 22 23 22 20 19 17 18 18 17 17 17 17 16 14 13 12
9 9 11 11 10 11 11 12 15 18 19 20 21 21 19 19 21 17 9 17 21 21 23 24 25 23 20 21 21 20 20 19 19 17 19 18 17 18 18 17 16 15 14 13
9 9 8 13 15 12 6 7 10 11 14 16 18 20 21 18 14 12 13 20 21 22 24 25 22 22 22 20 21 19 18 18 16 16 16 16 17 17 17 16 15 14 13 12
10 10 11 11 8 6 11 11 11 10 12 12 14 16 16 16 15 17 17 21 21 22 23 23 23 22 22 21 19 17 17 17 16 17 17 17 16 16 16 15 14 14 14 13
10 8 9 10 9 11 12 12 9 12 12 12 13 15 13 13 13 18 19 22 23 23 24 23 26 24 20 20 18 16 15 16 15 15 15 15 15 15 14 14 14 13 13 13
10 11 10 9 11 14 15 14 12 11 15 16 14 16 16 16 17 19 21 22 23 24 23 25 26 22 19 18 16 15 15 15 15 14 15 14 14 14 13 12 12 12 12 12
Wind_Direction
10 8 358 346 336 17 224 50 218 235 197 92 133 154 155 149 151 162 173 183 181 177 176 162 158 161 167 159 154 152 143 138 133 130 127 120 105 93 100 90 72 74 75 76
319 88 348 324 325 330 284 263 246 257 289 199 243 182 191 162 169 185 219 190 189 184 168 162 159 163 169 161 162 155 147 145 142 136 130 118 104 98 103 99 87 81 74 70
275 144 90 278 237 250 231 227 223 258 253 261 240 232 191 182 188 211 203 199 195 179 172 162 158 161 165 164 160 154 151 153 149 142 131 118 112 109 102 97 93 86 84 75
237 164 181 237 243 274 270 264 256 247 236 243 241 225 222 198 205 212 204 194 179 161 161 158 157 161 161 156 153 152 156 157 150 143 131 125 119 116 108 99 95 89 84 83
204 201 293 283 223 161 128 284 280 218 223 236 266 91 253 7 302 209 185 172 162 160 158 156 153 152 149 146 150 152 152 158 153 146 140 138 133 128 119 106 96 92 87 83
128 152 236 189 143 146 164 293 322 233 278 121 87 115 249 355 336 97 109 141 147 148 146 147 148 152 149 141 143 148 159 161 155 148 145 144 148 143 126 112 103 96 92 88
210 234 276 268 269 167 142 241 296 355 104 154 192 185 100 58 52 73 123 133 138 141 147 147 151 154 143 143 153 162 161 156 147 144 146 148 147 154 140 121 106 97 98 92
180 198 268 217 304 118 214 244 206 161 161 113 114 99 89 99 103 107 120 132 139 136 136 143 151 150 138 147 160 160 154 148 145 146 149 153 150 151 154 132 114 103 97 89
180 213 257 299 252 308 187 222 217 143 138 143 138 146 137 123 118 123 131 134 137 134 131 141 148 150 141 153 159 157 151 149 145 148 152 153 159 147 147 141 125 110 99 88
110 244 240 285 280 295 269 234 69 108 144 141 139 146 138 137 136 135 139 140 141 138 140 138 144 148 152 154 159 155 151 151 153 157 153 147 146 152 152 145 135 126 112 95
270 274 287 256 209 198 149 104 113 124 157 157 152 159 154 149 146 145 151 145 148 148 147 146 149 151 158 163 163 152 151 151 153 155 153 149 148 151 149 147 148 135 122 103
228 227 191 244 202 220 183 163 168 140 135 148 155 154 155 150 154 154 152 151 151 151 149 150 153 155 160 167 166 157 154 152 159 156 149 142 132 120 119 122 126 126 118 112
218 219 224 250 239 195 234 137 145 147 151 146 148 151 159 151 156 157 157 159 161 160 159 159 162 163 167 172 166 162 162 160 161 161 157 151 148 144 139 136 124 122 123 112
222 164 238 237 241 246 144 123 127 119 128 145 142 145 151 152 154 160 167 167 169 171 169 167 168 167 171 170 170 173 173 173 172 173 171 168 168 167 160 159 155 136 119 129
222 195 188 212 160 84 112 125 125 132 138 133 144 145 152 155 161 163 156 157 153 155 156 164 167 171 178 181 184 179 178 179 182 178 178 175 175 175 176 169 164 159 143 134
172 144 161 161 152 123 128 135 131 141 141 146 145 150 157 156 142 140 148 151 141 144 142 150 154 161 174 178 175 168 166 165 165 165 168 173 178 183 184 177 174 167 164 158
132 192 159 151 149 134 155 151 152 152 149 154 148 138 132 128 128 130 138 151 154 155 160 160 155 160 170 172 171 167 164 165 167 165 168 171 174 169 170 178 177 166 160 162
178 160 173 158 154 130 128 139 132 147 153 146 141 141 134 138 135 127 133 147 145 149 164 168 166 164 168 170 171 169 169 169 169 169 168 170 172 174 171 173 171 162 158 161
105 115 122 123 127 120 126 128 131 134 139 144 142 143 145 139 139 142 150 147 146 144 163 171 168 171 176 177 177 174 172 169 172 171 174 173 173 176 179 180 178 175 175 176
88 90 98 95 112 121 109 127 136 128 138 139 135 131 133 143 149 149 159 151 168 178 173 172 170 174 173 171 177 172 170 173 172 172 176 177 179 178 181 185 182 182 186 190
84 87 94 102 92 111 132 143 138 133 149 155 148 148 147 150 155 154 143 146 178 179 174 172 175 175 180 179 178 180 181 180 184 183 185 182 183 185 186 185 188 189 193 200
82 92 95 107 107 99 125 142 145 144 148 146 148 148 143 146 153 155 170 173 174 174 176 174 178 174 170 176 182 182 186 189 189 192 191 192 194 190 189 192 194 198 202 209
117 117 118 109 108 115 123 137 150 155 153 158 157 157 158 162 163 154 146 182 176 176 179 179 184 182 181 184 185 189 191 193 191 195 196 201 203 198 199 200 204 207 212 219
150 152 116 124 128 119 118 144 153 163 169 172 178 179 172 156 166 180 189 180 183 177 182 184 183 188 194 187 189 193 195 199 201 199 201 205 206 209 210 212 214 219 221 226
142 141 136 135 136 136 137 148 151 156 164 170 176 183 188 190 177 179 182 182 182 180 185 183 186 190 194 195 196 199 202 203 205 206 206 210 212 214 217 222 226 229 231 236
151 151 154 157 161 153 152 155 150 165 171 166 179 187 188 192 194 180 182 183 182 186 187 187 189 192 196 197 199 202 208 207 207 209 215 219 220 221 223 225 231 234 236 241
155 157 165 176 179 172 172 170 162 170 188 186 182 190 185 183 182 180 182 182 187 189 191 190 193 196 198 199 201 207 209 211 213 218 219 225 224 226 232 237 236 235 243 246